Weather reports worldwide

Advertisment
Loch Glascarnoch, United Kingdom (3031): temperature & dewpoint: 04.07.2020 03:00:00 - 10.07.2020 03:00:00 (BST)Loch Glascarnoch, United Kingdom (3031): temperature -20cm & temperature -100cm: 04.07.2020 03:00:00 - 10.07.2020 03:00:00 (BST)Loch Glascarnoch, United Kingdom (3031): wind speed & gusts: 04.07.2020 03:00:00 - 10.07.2020 03:00:00 (BST)Loch Glascarnoch, United Kingdom (3031): wind direction: 04.07.2020 03:00:00 - 10.07.2020 03:00:00 (BST)Loch Glascarnoch, United Kingdom (3031): reduced air pressure: 04.07.2020 03:00:00 - 10.07.2020 03:00:00 (BST)Loch Glascarnoch, United Kingdom (3031): visibility: 04.07.2020 03:00:00 - 10.07.2020 03:00:00 (BST)Loch Glascarnoch, United Kingdom (3031): sunshine duration: 04.07.2020 03:00:00 - 10.07.2020 03:00:00 (BST)Loch Glascarnoch, United Kingdom (3031): precipitation: 04.07.2020 03:00:00 - 10.07.2020 03:00:00 (BST)
Date & Time tt [°C] td [°C] tt -20cm [°C] tt -100cm [°C] ff [km/h] ff [kn] fx [km/h] fx [kn] dd ppp [hPa] vv [km] sd [min] rr [mm]
10.07.2020 03:00:00 - - - - - - - - - - - - -
10.07.2020 02:00:00 8,0 7,2 - - 4 2 - - WNW 1015,9 15 0 0,0
10.07.2020 01:00:00 8,5 7,5 - - 9 5 - - W 1016,1 50 - 0,0
10.07.2020 00:00:00 8,4 7,2 - - 11 6 - - W 1016,1 50 0 0,0
09.07.2020 23:00:00 7,7 6,2 - - 13 7 - - WNW 1016,1 50 0 0,0
09.07.2020 22:00:00 9,5 7,0 - - 16 9 - - WNW 1015,6 50 0 0,0
09.07.2020 21:00:00 10,6 6,6 - - 15 8 - - WNW 1015,3 50 0 0,0
09.07.2020 20:00:00 11,3 6,4 - - 18 10 - - NW 1015,0 50 6 0,0
09.07.2020 19:00:00 13,0 6,2 - - 18 10 - - NNW 1014,6 35 54 0,0
09.07.2020 18:00:00 13,7 6,1 - - 22 12 - - WNW 1014,3 40 42 0,0
09.07.2020 17:00:00 14,1 6,7 - - 21 11 - - WNW 1014,4 35 18 0,0
09.07.2020 16:00:00 13,8 6,3 - - 24 13 - - W 1014,6 45 24 0,0
09.07.2020 15:00:00 13,9 4,8 - - 16 9 - - W 1014,4 45 54 0,0
09.07.2020 14:00:00 13,8 6,1 - - 21 11 - - WNW 1014,6 45 36 0,0
09.07.2020 13:00:00 14,7 6,5 - - 16 9 - - WNW 1014,7 29 12 0,0
09.07.2020 12:00:00 13,2 7,2 - - 18 10 - - W 1014,8 40 24 0,0
09.07.2020 11:00:00 13,6 4,6 - - 13 7 - - WNW 1014,5 20 60 0,0
09.07.2020 10:00:00 12,0 5,7 13,2 12,2 18 10 - - W 1015,0 45 18 0,0
09.07.2020 09:00:00 11,2 6,9 - - 16 9 - - WNW 1014,9 50 18 0,0
09.07.2020 08:00:00 9,6 7,0 - - 15 8 - - WNW 1014,9 35 0 0,0
09.07.2020 07:00:00 8,6 6,8 - - 15 8 - - WNW 1014,7 50 0 0,0
09.07.2020 06:00:00 6,3 5,9 - - 2 1 - - WNW 1015,0 45 0 0,0
09.07.2020 05:00:00 3,8 3,2 - - 5 3 - - W 1015,0 50 0 0,0
09.07.2020 04:00:00 4,9 4,3 - - 8 4 - - W 1015,1 50 0 0,0
09.07.2020 03:00:00 5,0 4,5 - - 5 3 - - W 1015,2 50 0 0,0
09.07.2020 02:00:00 5,0 4,5 - - 5 3 - - WSW 1015,3 50 0 0,0
09.07.2020 01:00:00 5,4 4,1 - - 5 3 - - WSW 1015,3 50 - 0,0
09.07.2020 00:00:00 7,0 6,4 - - 5 3 - - W 1015,2 45 0 0,0
08.07.2020 23:00:00 8,3 6,0 - - 8 4 - - WNW 1015,0 50 0 0,0
08.07.2020 22:00:00 10,5 7,1 - - 8 4 - - W 1014,8 50 0 0,0
08.07.2020 21:00:00 11,6 8,3 - - 4 2 - - E 1014,5 45 12 0,0
08.07.2020 20:00:00 11,7 8,9 - - 9 5 - - E 1014,7 45 6 0,4
08.07.2020 19:00:00 12,0 7,4 - - 11 6 - - E 1014,5 16 0 0,0
08.07.2020 18:00:00 14,2 6,4 - - 15 8 - - W 1014,1 45 12 0,0
08.07.2020 17:00:00 13,8 6,4 - - 16 9 - - WNW 1014,7 40 0 0,0
08.07.2020 16:00:00 14,4 5,6 - - 9 5 - - W 1014,9 35 6 0,0
08.07.2020 15:00:00 14,8 5,7 - - 8 4 - - WNW 1015,0 45 12 0,0
08.07.2020 14:00:00 14,4 4,1 - - 8 4 - - WNW 1015,3 30 6 0,0
08.07.2020 13:00:00 13,9 3,9 - - 4 2 - - E 1015,5 50 6 0,0
08.07.2020 12:00:00 13,1 3,8 - - 4 2 - - SSE 1015,9 45 0 0,0
08.07.2020 11:00:00 12,0 4,8 - - 5 3 - - ESE 1016,3 35 6 0,0
08.07.2020 10:00:00 11,2 4,5 13,0 12,2 9 5 - - ESE 1016,4 50 48 0,0
08.07.2020 09:00:00 10,6 5,6 - - 4 2 - - W 1016,4 50 42 0,0
08.07.2020 08:00:00 9,8 6,2 - - 4 2 - - ENE 1016,6 30 30 0,0
08.07.2020 07:00:00 5,9 5,6 - - 0 0 - - N 1016,9 45 0 0,0
08.07.2020 06:00:00 4,9 4,2 - - 2 1 - - N 1017,0 30 0 0,0
08.07.2020 05:00:00 6,7 6,0 - - 0 0 - - N 1016,8 30 0 0,0
08.07.2020 04:00:00 6,3 5,6 - - 2 1 - - ENE 1016,8 40 0 0,0
08.07.2020 03:00:00 5,5 4,6 - - 2 1 - - NW 1017,2 30 0 0,0
08.07.2020 02:00:00 7,1 5,9 - - 4 2 - - SW 1017,1 30 0 0,0
08.07.2020 01:00:00 7,5 6,3 - - 8 4 - - WNW 1017,0 35 - 0,0
08.07.2020 00:00:00 8,0 6,1 - - 2 1 - - WSW 1016,9 30 0 0,0
07.07.2020 23:00:00 8,8 6,3 - - 11 6 - - NW 1016,6 35 0 0,0
07.07.2020 22:00:00 9,4 6,0 - - 16 9 - - WNW 1016,4 45 0 0,0
07.07.2020 21:00:00 9,9 6,5 - - 16 9 - - W 1016,2 40 18 0,0
07.07.2020 20:00:00 11,6 6,6 - - 22 12 - - W 1015,9 40 42 0,0
07.07.2020 19:00:00 12,3 6,4 - - 21 11 - - W 1015,5 40 24 0,0
07.07.2020 18:00:00 12,2 6,6 - - 22 12 - - W 1015,6 35 0 0,0
07.07.2020 17:00:00 12,0 7,0 - - 21 11 - - W 1015,8 45 0 0,0
07.07.2020 16:00:00 11,9 6,8 - - 21 11 - - WNW 1015,9 50 0 0,0
07.07.2020 15:00:00 12,1 7,3 - - 18 10 - - WNW 1015,8 45 6 0,0
07.07.2020 14:00:00 12,2 8,1 - - 21 11 - - W 1015,7 30 0 0,0
07.07.2020 13:00:00 11,6 8,2 - - 18 10 - - WNW 1015,7 45 18 0,0
07.07.2020 12:00:00 10,5 8,9 - - 21 11 - - W 1015,7 35 0 0,0
07.07.2020 11:00:00 10,9 10,2 - - 18 10 - - W 1015,4 12 12 0,4
07.07.2020 10:00:00 10,1 8,0 12,7 12,2 15 8 - - W 1015,5 40 0 0,2
07.07.2020 09:00:00 9,6 8,6 - - 13 7 - - W 1015,4 40 0 0,2
07.07.2020 08:00:00 8,5 8,0 - - 13 7 - - W 1015,6 9 0 0,4
07.07.2020 07:00:00 8,7 7,8 - - 15 8 - - WNW 1015,5 35 0 0,0
07.07.2020 06:00:00 8,2 7,2 - - 18 10 - - W 1015,6 7 0 0,2
07.07.2020 05:00:00 8,1 7,3 - - 21 11 - - WNW 1015,9 50 0 0,0
07.07.2020 04:00:00 8,1 7,6 - - 18 10 - - W 1016,1 18 0 0,2
07.07.2020 03:00:00 8,1 7,4 - - 15 8 - - WNW 1016,4 10 0 0,2
07.07.2020 02:00:00 8,2 7,4 - - 8 4 - - WNW 1016,5 6 0 0,2
07.07.2020 01:00:00 8,3 7,3 - - 15 8 - - WNW 1016,9 16 - 1,0
07.07.2020 00:00:00 8,4 7,6 - - 15 8 - - WNW 1016,6 5 0 0,0
06.07.2020 23:00:00 8,6 6,9 - - 18 10 - - W 1016,6 40 0 0,4
06.07.2020 22:00:00 8,7 7,8 - - 21 11 - - W 1016,8 12 0 0,4
06.07.2020 21:00:00 9,1 8,2 - - 16 9 - - WNW 1016,9 6 0 1,6
06.07.2020 20:00:00 9,2 8,1 - - 22 12 - - W 1016,8 16 0 0,2
06.07.2020 19:00:00 10,3 6,0 - - 35 19 52 28 W 1016,6 22 0 0,0
06.07.2020 18:00:00 10,7 5,4 - - 29 16 48 26 W 1016,8 40 0 0,0
06.07.2020 17:00:00 11,4 6,0 - - 35 19 48 26 W 1017,1 35 0 0,0
06.07.2020 16:00:00 10,6 5,6 - - 31 17 - - W 1017,2 30 0 0,0
06.07.2020 15:00:00 11,6 6,5 - - 34 18 46 25 W 1016,8 40 6 0,0
06.07.2020 14:00:00 11,2 5,6 - - 26 14 - - W 1016,8 35 18 0,0
06.07.2020 13:00:00 12,5 7,3 - - 28 15 - - W 1016,2 40 12 0,2
06.07.2020 12:00:00 10,6 6,7 - - 22 12 - - WNW 1016,0 35 0 0,0
06.07.2020 11:00:00 10,1 6,9 - - 29 16 - - WNW 1015,8 27 12 0,0
06.07.2020 10:00:00 9,2 6,9 13,0 12,5 26 14 - - W 1015,1 35 6 0,0
06.07.2020 09:00:00 10,1 6,5 - - 28 15 - - WNW 1014,4 24 6 0,0
06.07.2020 08:00:00 8,7 5,9 - - 28 15 50 27 WNW 1013,5 24 0 0,2
06.07.2020 07:00:00 8,2 6,8 - - 28 15 - - WNW 1012,1 9 0 1,0
06.07.2020 06:00:00 8,4 6,7 - - 22 12 - - NW 1010,9 6 0 0,6
06.07.2020 05:00:00 8,7 7,2 - - 26 14 - - WNW 1009,5 14 0 0,4
06.07.2020 04:00:00 8,7 6,9 - - 28 15 50 27 WNW 1008,3 30 0 0,0
06.07.2020 03:00:00 8,9 7,2 - - 26 14 - - WNW 1007,1 24 0 0,4
06.07.2020 02:00:00 8,7 7,3 - - 18 10 - - NW 1006,0 17 0 2,0
06.07.2020 01:00:00 9,0 8,2 - - 26 14 - - WNW 1004,6 10 - 1,8
06.07.2020 00:00:00 8,8 7,6 - - 24 13 - - W 1003,4 35 0 0,0
05.07.2020 23:00:00 8,9 7,5 - - 22 12 - - WNW 1002,3 50 0 0,0
05.07.2020 22:00:00 9,2 7,5 - - 24 13 - - WNW 1001,4 50 0 0,0
05.07.2020 21:00:00 9,0 7,0 - - 22 12 - - NW 1000,3 50 0 0,0
05.07.2020 20:00:00 9,4 8,1 - - 18 10 - - WNW 999,3 50 0 1,4
05.07.2020 19:00:00 9,5 8,2 - - 21 11 - - W 998,3 11 0 2,4
05.07.2020 18:00:00 9,9 7,4 - - 24 13 - - NW 997,4 9 0 0,0
05.07.2020 17:00:00 11,6 6,9 - - 26 14 - - WNW 996,4 35 18 0,0
05.07.2020 16:00:00 13,4 7,3 - - 24 13 - - WNW 995,9 45 30 0,0
05.07.2020 15:00:00 13,9 6,8 - - 29 16 46 25 W 995,2 50 42 0,0
05.07.2020 14:00:00 11,3 6,1 - - 31 17 - - W 995,4 40 0 0,2
05.07.2020 13:00:00 10,4 7,0 - - 22 12 - - WSW 995,3 15 24 0,2
05.07.2020 12:00:00 10,5 6,8 - - 28 15 50 27 W 995,0 40 0 0,2
05.07.2020 11:00:00 8,6 7,9 - - 16 9 - - WNW 995,4 35 0 2,4
05.07.2020 10:00:00 9,5 7,6 13,2 12,7 28 15 - - W 994,7 40 0 0,2
05.07.2020 09:00:00 9,1 7,4 - - 24 13 - - W 994,5 24 0 0,2
05.07.2020 08:00:00 8,5 6,8 - - 26 14 - - W 994,4 12 0 0,4
05.07.2020 07:00:00 8,2 7,3 - - 18 10 - - WNW 994,0 6 0 0,0
05.07.2020 06:00:00 8,2 7,5 - - 21 11 - - WNW 993,3 28 0 0,0
05.07.2020 05:00:00 8,2 7,7 - - 21 11 - - WNW 992,9 50 0 0,0
05.07.2020 04:00:00 8,2 7,8 - - 15 8 - - WNW 992,5 50 0 0,2
05.07.2020 03:00:00 8,5 8,2 - - 16 9 - - WNW 992,3 13 0 2,0
05.07.2020 02:00:00 8,5 8,3 - - 11 6 - - WNW 992,4 9 0 2,4
05.07.2020 01:00:00 8,4 8,0 - - 9 5 - - W 992,9 14 - 2,6
05.07.2020 00:00:00 8,4 7,8 - - 4 2 - - NW 993,9 7 0 2,0
04.07.2020 23:00:00 8,8 8,0 - - 9 5 - - ESE 995,3 17 0 1,8
04.07.2020 22:00:00 9,3 7,9 - - 4 2 - - WNW 997,1 11 0 1,2
04.07.2020 21:00:00 10,6 6,7 - - 4 2 - - N 997,2 50 0 0,0
04.07.2020 20:00:00 11,2 7,0 - - 13 7 - - SW 998,6 50 0 0,0
04.07.2020 19:00:00 11,5 7,7 - - 15 8 - - SW 999,3 40 0 0,0
04.07.2020 18:00:00 11,5 7,7 - - 13 7 - - SW 999,9 50 0 0,0
04.07.2020 17:00:00 11,8 7,3 - - 13 7 - - W 1000,6 40 0 0,0
04.07.2020 16:00:00 12,2 7,4 - - 22 12 - - WNW 1001,4 40 0 0,0
04.07.2020 15:00:00 11,7 8,1 - - 18 10 - - WNW 1001,5 35 0 0,2
04.07.2020 14:00:00 10,2 9,2 - - 28 15 - - WNW 1001,8 4,3 0 0,6
04.07.2020 13:00:00 12,1 9,4 - - 21 11 - - SW 1001,4 30 6 0,2
04.07.2020 12:00:00 10,7 8,7 - - 16 9 - - SW 1002,0 4,5 0 0,0
04.07.2020 11:00:00 10,3 8,5 - - 13 7 - - SW 1002,0 21 0 0,4
04.07.2020 10:00:00 9,9 8,7 13,7 12,7 9 5 - - SW 1002,1 9 0 1,8
04.07.2020 09:00:00 9,3 8,5 - - 8 4 - - W 1002,2 3,1 0 0,4
04.07.2020 08:00:00 10,3 7,8 - - 8 4 - - SSW 1001,8 35 0 0,0
04.07.2020 07:00:00 10,3 7,3 - - 4 2 - - SW 1002,2 35 0 0,0
04.07.2020 06:00:00 9,6 7,2 - - 4 2 - - SSW 1002,3 45 0 0,0
04.07.2020 05:00:00 9,2 6,5 - - 5 3 - - W 1002,6 50 0 0,0
04.07.2020 04:00:00 9,6 5,7 - - 4 2 - - W 1002,5 45 0 0,0
04.07.2020 03:00:00 8,4 6,2 - - 9 5 - - NW 1002,8 50 0 0,0

tt = temperature
td = dewpoint
tt -20cm = temperature -20cm
tt -100cm = temperature -100cm
ff = wind speed
fx = gusts
dd = wind direction
ppp = reduced air pressure
vv = visibility
sd = sunshine duration
rr = precipitation

Next stations